CZ-6A DEB, 56599

Orbit data source: Space-Track

CZ-6A DEB, 56599 is space debris in SSO originally from a launch on Fri, 11 Nov 2022 UTC launched from the Taiyaun Space Center, China (TSC). Debris objects in space refer to the collection of defunct objects orbiting the Earth. Examples of debris include non-operational satellites, rocket bodies, and fragments generated from explosions, collisions, or faulty payload assembly.

Loading next visibility...
Identifier
56599, 2022-151ADX
Orbit
SSO
Country
Flag of CNCN / PRC
Related business
Manufacturer
SAST
Mission
Spacecraft
Bus & Motor
Unknown
Mass
Unknown
Launch date (UTC)
2022-11-11 (4 years ago)
Launch vehicle
Unknown
Launch site
Taiyaun Space Center, China (TSC)
Object type
Payload
Rocket body
Debris
Shape & HBR
Unknown shape, 0.1 m
Radar Cross Section
Medium (>0.1 m² and <1 m²)

Expand to show TLE details & history
Last TLE update: 2 days ago

TLE from 2 days ago
0 CZ-6A DEB
1 56599U 22151ADX 26171.33884125  .00000739  00000-0  26924-3 0  9991
2 56599  98.6709 194.5152 0112831  83.8973 277.5053 14.32598703164783
Epoch: 2026-06-20T08:07Z
TLE epoch observation values (Epoch: 2026-06-20T08:07:55.884Z)
Latitude
0.00001°
Longitude
163.97746°
Altitude
776.333 km
Speed
7.471 km/s
True Right ascension
12h 58m 03s
True Declination
0° 00' 00"
Sunlit
Object was in daylight at epoch
Visualization orbit readout
Latitude
Unknown
Longitude
Unknown
Altitude
Unknown
Speed
Unknown
Apparent Right ascension
Unknown
Apparent Declination
Unknown
Sunlit
N/A
Visualization observer readout
Local Sidereal Time
23:18:38
Azimuth
Unknown
Elevation
Unknown
Doppler factor
Unknown
Orbital elements
Apogee altitude
860.965 km
Perigee altitude
699.429 km
Semi-major axis
7,158.334 km
Eccentricity
0.01128
Inclination
98.6709°
RAAN
194.5152°
Arg. of periapsis
83.8973°
True anomaly
276.22117°
Mean anomaly
277.5053°
Eccentric anomaly
276.86346°
Mean motion
3.58365 °/min
Orbital period
100.46 mins
BSTAR
0.00026924
Loading maneuver chart data...
Computing Atmospheric mass density...
Loading historical data...
Loading historical data...
Loading historical data...
Loading historical data...
Loading historical data...
Loading historical data...
Loading historical data...

Documentation

Showing up to 5 results
|